FLOCK 3P-13

Last updated on Wed Feb 14 2018 16:20:33 GMT+0000 (Coordinated Universal Time)

1 42040U 17008CW 18045.39925334 .00002567 00000-0 10949-3 0 9998 2 42040 97.4665 111.0128 0009325 89.9712 270.2593 15.23812310 54573
UTC large
Height (km)
Speed (km/s)
/
Latitude / Longitude
Inclination (degrees)
Orbital Period (minutes)
Azimuth
Elevation
Range (km)
Doppler Factor

Next 0 passes for location: London (51.5072 / 0.1276)

Sorry there are no passes over London.